EZY23FK EGCC-EKCH

Flight info

Callsign EZY23FK
Flight time 1h 28m
Altitude 37000
Route SONEX L975 DESIG L603 LAMIX UT29 LIBSO UL975 ERDOW DCT BAZNA DCT ODMOS DCT ROPAL DCT LESRA DCT TESPI
Aircraft A320/M-SDE2E3FGHIJ1RWXYZ/LB1

Departure

Time 2026-04-24 10:07
Airport Manchester Airport (EGCC)

Arrival

Time 2026-04-24 11:35
Airport Copenhagen Kastrup Airport (EKCH)
Time Latitude Longitude Altitude Speed Heading
2026-04-24 09:38 53.36836 -2.28883 233 ft 0 kts 134°
2026-04-24 09:54 53.36842 -2.28893 233 ft 3 kts 139°
2026-04-24 09:54 53.36861 -2.28914 234 ft 3 kts 167°
2026-04-24 09:54 53.36882 -2.28914 234 ft 3 kts 214°
2026-04-24 09:54 53.36891 -2.28902 235 ft 1 kts 225°
2026-04-24 09:58 53.36860 -2.28952 234 ft 10 kts 225°
2026-04-24 09:58 53.36807 -2.29023 233 ft 10 kts 204°
2026-04-24 09:58 53.36729 -2.29014 234 ft 12 kts 137°
2026-04-24 09:58 53.36671 -2.28922 233 ft 11 kts 136°
2026-04-24 09:59 53.36615 -2.28861 234 ft 9 kts 148°
2026-04-24 09:59 53.36566 -2.28730 234 ft 16 kts 120°
2026-04-24 09:59 53.36504 -2.28620 233 ft 12 kts 133°
2026-04-24 09:59 53.36453 -2.28529 233 ft 10 kts 133°
2026-04-24 10:00 53.36397 -2.28403 233 ft 17 kts 127°
2026-04-24 10:00 53.36309 -2.28261 233 ft 18 kts 136°
2026-04-24 10:00 53.36219 -2.28106 233 ft 19 kts 133°
2026-04-24 10:00 53.36125 -2.27944 233 ft 14 kts 134°
2026-04-24 10:01 53.36106 -2.27910 233 ft 0 kts 134°
2026-04-24 10:01 53.36103 -2.27905 233 ft 0 kts 134°
2026-04-24 10:01 53.36100 -2.27901 233 ft 4 kts 136°
2026-04-24 10:01 53.36082 -2.27873 233 ft 0 kts 137°
2026-04-24 10:02 53.36079 -2.27869 233 ft 5 kts 137°
2026-04-24 10:02 53.36023 -2.27793 233 ft 11 kts 144°
2026-04-24 10:02 53.35966 -2.27735 233 ft 9 kts 163°
2026-04-24 10:02 53.35908 -2.27735 233 ft 10 kts 182°
2026-04-24 10:03 53.35810 -2.27704 234 ft 16 kts 153°
2026-04-24 10:03 53.35708 -2.27625 233 ft 17 kts 159°
2026-04-24 10:03 53.35621 -2.27522 233 ft 12 kts 139°
2026-04-24 10:03 53.35570 -2.27454 233 ft 0 kts 143°
2026-04-24 10:04 53.35527 -2.27399 235 ft 15 kts 142°
2026-04-24 10:04 53.35447 -2.27292 240 ft 14 kts 141°
2026-04-24 10:04 53.35348 -2.27191 233 ft 19 kts 171°
2026-04-24 10:05 53.35249 -2.27288 233 ft 18 kts 230°
2026-04-24 10:05 53.35172 -2.27445 233 ft 18 kts 231°
2026-04-24 10:05 53.35074 -2.27498 233 ft 17 kts 161°
2026-04-24 10:05 53.34962 -2.27463 233 ft 14 kts 173°
2026-04-24 10:06 53.34916 -2.27512 233 ft 2 kts 232°
2026-04-24 10:06 53.34574 -2.28219 232 ft 102 kts 231°
2026-04-24 10:06 53.34008 -2.29389 239 ft 154 kts 231°
2026-04-24 10:07 53.33315 -2.30807 840 ft 154 kts 230°
2026-04-24 10:07 53.32639 -2.32202 1594 ft 156 kts 229°
2026-04-24 10:07 53.31939 -2.33801 2024 ft 184 kts 238°
2026-04-24 10:07 53.31453 -2.35922 2473 ft 209 kts 258°
2026-04-24 10:08 53.31446 -2.38499 2885 ft 236 kts 279°
2026-04-24 10:08 53.32129 -2.41147 3389 ft 261 kts 306°
2026-04-24 10:08 53.33530 -2.43137 4176 ft 270 kts 334°
2026-04-24 10:08 53.35340 -2.43986 5105 ft 273 kts 359°
2026-04-24 10:09 53.37206 -2.43513 6041 ft 274 kts 24°
2026-04-24 10:09 53.38763 -2.41796 6933 ft 274 kts 48°
2026-04-24 10:09 53.39943 -2.39284 7822 ft 275 kts 54°
2026-04-24 10:09 53.41095 -2.36697 8727 ft 279 kts 54°
2026-04-24 10:10 53.42262 -2.34071 9600 ft 282 kts 54°
2026-04-24 10:10 53.43445 -2.31422 10424 ft 286 kts 53°
2026-04-24 10:10 53.44675 -2.28670 10818 ft 306 kts 53°
2026-04-24 10:10 53.46000 -2.25712 11189 ft 325 kts 53°
2026-04-24 10:11 53.47374 -2.22651 11851 ft 332 kts 53°
2026-04-24 10:11 53.48743 -2.19497 12572 ft 337 kts 58°
2026-04-24 10:11 53.49786 -2.15950 13262 ft 342 kts 70°
2026-04-24 10:11 53.50363 -2.12058 13972 ft 346 kts 81°
2026-04-24 10:12 53.50771 -2.08047 14619 ft 350 kts 81°
2026-04-24 10:12 53.51188 -2.03994 15260 ft 354 kts 81°
2026-04-24 10:12 53.51616 -1.99898 15895 ft 358 kts 80°
2026-04-24 10:12 53.52128 -1.95792 16529 ft 361 kts 77°
2026-04-24 10:13 53.52739 -1.91676 17173 ft 365 kts 76°
2026-04-24 10:13 53.53409 -1.87533 17808 ft 368 kts 75°
2026-04-24 10:13 53.54100 -1.83368 18441 ft 372 kts 75°
2026-04-24 10:13 53.54791 -1.79158 19019 ft 375 kts 75°
2026-04-24 10:14 53.55473 -1.74900 19570 ft 378 kts 76°
2026-04-24 10:14 53.56144 -1.70606 20130 ft 381 kts 76°
2026-04-24 10:14 53.56806 -1.66278 20689 ft 383 kts 76°
2026-04-24 10:14 53.57455 -1.61974 21214 ft 386 kts 76°
2026-04-24 10:15 53.58122 -1.57516 21753 ft 389 kts 77°
2026-04-24 10:15 53.58560 -1.54585 22105 ft 391 kts 77°
2026-04-24 10:15 53.59447 -1.48684 22795 ft 395 kts 76°
2026-04-24 10:15 53.60126 -1.44193 23313 ft 397 kts 76°
2026-04-24 10:16 53.60812 -1.39664 23811 ft 400 kts 76°
2026-04-24 10:16 53.61500 -1.35106 24244 ft 403 kts 76°
2026-04-24 10:16 53.62189 -1.30520 24680 ft 405 kts 76°
2026-04-24 10:16 53.62880 -1.25910 25106 ft 407 kts 76°
2026-04-24 10:17 53.63348 -1.22779 25391 ft 408 kts 76°
2026-04-24 10:17 53.64038 -1.18125 25812 ft 410 kts 77°
2026-04-24 10:17 53.64727 -1.13455 26215 ft 412 kts 77°
2026-04-24 10:17 53.65420 -1.08753 26623 ft 414 kts 77°
2026-04-24 10:18 53.66105 -1.04089 27020 ft 416 kts 77°
2026-04-24 10:18 53.66801 -0.99345 27409 ft 418 kts 77°
2026-04-24 10:18 53.67499 -0.94574 27785 ft 420 kts 77°
2026-04-24 10:18 53.68199 -0.89780 28159 ft 422 kts 77°
2026-04-24 10:19 53.68901 -0.84967 28536 ft 424 kts 77°
2026-04-24 10:19 53.69602 -0.80123 28905 ft 426 kts 77°
2026-04-24 10:19 53.70305 -0.75257 29275 ft 428 kts 77°
2026-04-24 10:19 53.71010 -0.70363 29637 ft 430 kts 78°
2026-04-24 10:20 53.71716 -0.65448 29996 ft 432 kts 78°
2026-04-24 10:20 53.72423 -0.60512 30348 ft 433 kts 78°
2026-04-24 10:20 53.73132 -0.55556 30648 ft 435 kts 78°
2026-04-24 10:20 53.73841 -0.50575 30923 ft 437 kts 78°
2026-04-24 10:21 53.74553 -0.45562 31170 ft 439 kts 78°
2026-04-24 10:21 53.75265 -0.40530 31412 ft 442 kts 78°
2026-04-24 10:21 53.75978 -0.35469 31665 ft 444 kts 79°
2026-04-24 10:21 53.76691 -0.30385 31953 ft 444 kts 79°
2026-04-24 10:22 53.77399 -0.25299 32313 ft 444 kts 79°
2026-04-24 10:22 53.78102 -0.20224 32665 ft 443 kts 79°
2026-04-24 10:22 53.78807 -0.15147 33009 ft 443 kts 79°
2026-04-24 10:22 53.79511 -0.10078 33357 ft 443 kts 79°
2026-04-24 10:23 53.80212 -0.05011 33704 ft 442 kts 80°
2026-04-24 10:23 53.80911 0.00053 34043 ft 442 kts 80°
2026-04-24 10:23 53.81606 0.05112 34392 ft 441 kts 80°
2026-04-24 10:23 53.82298 0.10174 34694 ft 441 kts 80°
2026-04-24 10:24 53.82984 0.15225 34962 ft 441 kts 80°
2026-04-24 10:24 53.83669 0.20286 35230 ft 441 kts 80°
2026-04-24 10:24 53.84350 0.25342 35481 ft 441 kts 80°
2026-04-24 10:24 53.85030 0.30404 35739 ft 440 kts 80°
2026-04-24 10:25 53.85705 0.35456 35973 ft 440 kts 80°
2026-04-24 10:25 53.86372 0.40451 36207 ft 440 kts 80°
2026-04-24 10:25 53.87046 0.45508 36438 ft 440 kts 80°
2026-04-24 10:25 53.87719 0.50575 36669 ft 440 kts 80°
2026-04-24 10:26 53.88390 0.55636 36890 ft 440 kts 80°
2026-04-24 10:26 53.89063 0.60701 37102 ft 440 kts 80°
2026-04-24 10:26 53.89731 0.65768 37310 ft 440 kts 80°
2026-04-24 10:27 53.91053 0.75892 37423 ft 438 kts 80°
2026-04-24 10:27 53.93101 0.85628 37419 ft 442 kts 63°
2026-04-24 10:28 53.96657 0.94201 37421 ft 445 kts 55°
2026-04-24 10:28 54.00364 1.02647 37419 ft 445 kts 56°
2026-04-24 10:29 54.04028 1.11064 37422 ft 445 kts 56°
2026-04-24 10:29 54.07729 1.19608 37420 ft 446 kts 56°
2026-04-24 10:30 54.11406 1.28111 37420 ft 446 kts 56°
2026-04-24 10:30 54.15075 1.36628 37414 ft 446 kts 56°
2026-04-24 10:31 54.18712 1.45112 37418 ft 446 kts 57°
2026-04-24 10:31 54.22138 1.53931 37410 ft 444 kts 61°
2026-04-24 10:32 54.25353 1.62954 37416 ft 444 kts 62°
2026-04-24 10:32 54.28568 1.71990 37411 ft 445 kts 61°
2026-04-24 10:33 54.31832 1.80993 37411 ft 445 kts 61°
2026-04-24 10:33 54.35111 1.89978 37404 ft 445 kts 61°
2026-04-24 10:34 54.38378 1.98986 37403 ft 444 kts 61°
2026-04-24 10:34 54.41625 2.08009 37401 ft 444 kts 61°
2026-04-24 10:35 54.44862 2.17046 37400 ft 444 kts 62°
2026-04-24 10:35 54.48093 2.26103 37398 ft 444 kts 62°
2026-04-24 10:36 54.51308 2.35116 37397 ft 445 kts 62°
2026-04-24 10:36 54.54541 2.44200 37403 ft 445 kts 62°
2026-04-24 10:37 54.57765 2.53290 37403 ft 444 kts 62°
2026-04-24 10:37 54.60976 2.62403 37401 ft 444 kts 62°
2026-04-24 10:38 54.64168 2.71531 37396 ft 444 kts 62°
2026-04-24 10:38 54.67358 2.80670 37391 ft 444 kts 62°
2026-04-24 10:39 54.70530 2.89757 37395 ft 444 kts 62°
2026-04-24 10:39 54.73712 2.98914 37392 ft 444 kts 62°
2026-04-24 10:40 54.77070 3.07887 37391 ft 446 kts 56°
2026-04-24 10:40 54.80787 3.16504 37388 ft 446 kts 56°
2026-04-24 10:41 54.84488 3.25130 37387 ft 446 kts 56°
2026-04-24 10:41 54.88190 3.33782 37383 ft 446 kts 56°
2026-04-24 10:42 54.91888 3.42443 37385 ft 446 kts 56°
2026-04-24 10:42 54.95577 3.51135 37381 ft 446 kts 57°
2026-04-24 10:43 54.99260 3.59846 37377 ft 446 kts 57°
2026-04-24 10:43 55.02934 3.68565 37371 ft 446 kts 57°
2026-04-24 10:44 55.06602 3.77300 37365 ft 446 kts 57°
2026-04-24 10:44 55.10263 3.86048 37357 ft 446 kts 57°
2026-04-24 10:45 55.13762 3.94895 37340 ft 443 kts 65°
2026-04-24 10:45 55.16234 4.04682 37326 ft 440 kts 70°
2026-04-24 10:46 55.18598 4.14556 37323 ft 440 kts 70°
2026-04-24 10:46 55.20949 4.24431 37311 ft 439 kts 70°
2026-04-24 10:47 55.22599 4.34633 37312 ft 435 kts 79°
2026-04-24 10:47 55.24005 4.44943 37304 ft 435 kts 79°
2026-04-24 10:48 55.25403 4.55261 37302 ft 435 kts 80°
2026-04-24 10:48 55.26791 4.65602 37309 ft 435 kts 80°
2026-04-24 10:49 55.28150 4.75882 37299 ft 435 kts 80°
2026-04-24 10:49 55.29515 4.86238 37306 ft 435 kts 80°
2026-04-24 10:50 55.30866 4.96595 37321 ft 436 kts 80°
2026-04-24 10:50 55.32217 5.06964 37331 ft 436 kts 80°
2026-04-24 10:51 55.33555 5.17337 37328 ft 435 kts 80°
2026-04-24 10:51 55.34892 5.27713 37327 ft 435 kts 81°
2026-04-24 10:52 55.36210 5.38083 37328 ft 435 kts 80°
2026-04-24 10:52 55.37520 5.48458 37321 ft 434 kts 81°
2026-04-24 10:53 55.38815 5.58825 37316 ft 433 kts 81°
2026-04-24 10:53 55.40103 5.69176 37306 ft 433 kts 81°
2026-04-24 10:54 55.41365 5.79452 37302 ft 432 kts 81°
2026-04-24 10:54 55.42640 5.89787 37295 ft 432 kts 81°
2026-04-24 10:55 55.43896 6.00120 37292 ft 431 kts 81°
2026-04-24 10:55 55.45142 6.10458 37286 ft 431 kts 81°
2026-04-24 10:56 55.46386 6.20787 37283 ft 431 kts 81°
2026-04-24 10:56 55.47621 6.31130 37278 ft 430 kts 82°
2026-04-24 10:57 55.48834 6.41454 37282 ft 430 kts 81°
2026-04-24 10:57 55.50046 6.51785 37276 ft 430 kts 81°
2026-04-24 10:58 55.51244 6.62117 37279 ft 429 kts 81°
2026-04-24 10:58 55.52430 6.72433 37269 ft 429 kts 81°
2026-04-24 10:59 55.53610 6.82760 37263 ft 428 kts 82°
2026-04-24 10:59 55.54782 6.93065 37266 ft 428 kts 82°
2026-04-24 11:00 55.55930 7.03297 37264 ft 427 kts 82°
2026-04-24 11:00 55.57076 7.13590 37245 ft 426 kts 82°
2026-04-24 11:01 55.58218 7.23851 37247 ft 425 kts 82°
2026-04-24 11:01 55.59343 7.34089 37241 ft 425 kts 81°
2026-04-24 11:02 55.60467 7.44345 37239 ft 425 kts 82°
2026-04-24 11:02 55.61574 7.54611 37236 ft 425 kts 81°
2026-04-24 11:03 55.62670 7.64905 37233 ft 426 kts 81°
2026-04-24 11:03 55.63769 7.75199 37231 ft 426 kts 81°
2026-04-24 11:04 55.64855 7.85523 37222 ft 426 kts 81°
2026-04-24 11:04 55.65929 7.95868 37218 ft 427 kts 80°
2026-04-24 11:05 55.67004 8.06218 37202 ft 428 kts 81°
2026-04-24 11:05 55.67895 8.14835 37194 ft 428 kts 80°
2026-04-24 11:06 55.68954 8.25233 37182 ft 429 kts 80°
2026-04-24 11:06 55.70000 8.35649 37178 ft 430 kts 80°
2026-04-24 11:07 55.71562 8.51323 37169 ft 431 kts 80°
2026-04-24 11:07 55.72602 8.61805 37169 ft 432 kts 80°
2026-04-24 11:08 55.73625 8.72316 37166 ft 432 kts 80°
2026-04-24 11:08 55.74643 8.82844 37134 ft 433 kts 80°
2026-04-24 11:09 55.75653 8.93333 37144 ft 434 kts 79°
2026-04-24 11:09 55.76662 9.03893 37145 ft 434 kts 79°
2026-04-24 11:10 55.77654 9.14489 37079 ft 436 kts 79°
2026-04-24 11:10 55.78152 9.19806 36820 ft 436 kts 79°
2026-04-24 11:10 55.78648 9.25122 36558 ft 437 kts 79°
2026-04-24 11:11 55.79144 9.30458 36299 ft 437 kts 79°
2026-04-24 11:11 55.79636 9.35783 35947 ft 436 kts 79°
2026-04-24 11:11 55.80123 9.41085 35440 ft 433 kts 79°
2026-04-24 11:11 55.80605 9.46357 34921 ft 431 kts 79°
2026-04-24 11:12 55.81083 9.51605 34401 ft 429 kts 79°
2026-04-24 11:12 55.81556 9.56831 33846 ft 428 kts 79°
2026-04-24 11:12 55.82025 9.62040 33348 ft 425 kts 79°
2026-04-24 11:12 55.82484 9.67208 32821 ft 422 kts 79°
2026-04-24 11:13 55.82934 9.72337 32309 ft 419 kts 79°
2026-04-24 11:13 55.83381 9.77440 31816 ft 416 kts 79°
2026-04-24 11:13 55.83825 9.82507 31323 ft 413 kts 79°
2026-04-24 11:13 55.84269 9.87547 30841 ft 411 kts 79°
2026-04-24 11:14 55.84709 9.92553 30368 ft 408 kts 79°
2026-04-24 11:14 55.85143 9.97528 29854 ft 405 kts 79°
2026-04-24 11:14 55.85574 10.02448 29413 ft 400 kts 78°
2026-04-24 11:14 55.86007 10.07240 28979 ft 395 kts 78°
2026-04-24 11:15 55.86355 10.12071 28537 ft 393 kts 87°
2026-04-24 11:15 55.86023 10.16885 28106 ft 393 kts 104°
2026-04-24 11:15 55.85258 10.21553 27699 ft 392 kts 104°
2026-04-24 11:15 55.84480 10.26197 27286 ft 391 kts 105°
2026-04-24 11:16 55.83701 10.30820 26875 ft 389 kts 105°
2026-04-24 11:16 55.82927 10.35411 26476 ft 387 kts 105°
2026-04-24 11:16 55.82157 10.39979 26081 ft 385 kts 105°
2026-04-24 11:16 55.81391 10.44529 25691 ft 383 kts 105°
2026-04-24 11:17 55.80627 10.49060 25298 ft 381 kts 104°
2026-04-24 11:17 55.79865 10.53570 24924 ft 380 kts 105°
2026-04-24 11:17 55.79104 10.58059 24549 ft 378 kts 105°
2026-04-24 11:17 55.78346 10.62519 24178 ft 377 kts 105°
2026-04-24 11:18 55.77589 10.66961 23817 ft 375 kts 105°
2026-04-24 11:18 55.76832 10.71382 23400 ft 373 kts 105°
2026-04-24 11:18 55.76075 10.75783 22972 ft 371 kts 105°
2026-04-24 11:18 55.75323 10.80153 22513 ft 370 kts 104°
2026-04-24 11:19 55.74563 10.84567 21449 ft 377 kts 104°
2026-04-24 11:19 55.73793 10.89031 20514 ft 378 kts 104°
2026-04-24 11:19 55.73022 10.93474 19725 ft 375 kts 104°
2026-04-24 11:19 55.72256 10.97880 18985 ft 372 kts 104°
2026-04-24 11:20 55.71494 11.02235 18252 ft 368 kts 104°
2026-04-24 11:20 55.70740 11.06547 17443 ft 364 kts 104°
2026-04-24 11:20 55.69993 11.10809 16656 ft 361 kts 104°
2026-04-24 11:20 55.69253 11.15039 15900 ft 357 kts 104°
2026-04-24 11:21 55.68518 11.19232 15238 ft 353 kts 104°
2026-04-24 11:21 55.67798 11.23311 14808 ft 342 kts 104°
2026-04-24 11:21 55.67095 11.27268 14487 ft 332 kts 104°
2026-04-24 11:21 55.66413 11.31101 14021 ft 328 kts 104°
2026-04-24 11:22 55.65725 11.34975 13589 ft 331 kts 104°
2026-04-24 11:22 55.65036 11.38876 13167 ft 332 kts 104°
2026-04-24 11:22 55.64343 11.42783 12767 ft 333 kts 104°
2026-04-24 11:22 55.63647 11.46691 12351 ft 333 kts 104°
2026-04-24 11:23 55.62948 11.50606 11927 ft 334 kts 104°
2026-04-24 11:23 55.62248 11.54533 11490 ft 335 kts 104°
2026-04-24 11:23 55.61546 11.58466 11052 ft 336 kts 104°
2026-04-24 11:23 55.60839 11.62403 10676 ft 334 kts 104°
2026-04-24 11:24 55.60134 11.66306 10249 ft 331 kts 104°
2026-04-24 11:24 55.59440 11.70110 9838 ft 317 kts 105°
2026-04-24 11:24 55.58774 11.73748 9370 ft 307 kts 104°
2026-04-24 11:24 55.58124 11.77321 8851 ft 306 kts 104°
2026-04-24 11:25 55.57480 11.80870 8473 ft 304 kts 104°
2026-04-24 11:25 55.56837 11.84406 8135 ft 300 kts 104°
2026-04-24 11:25 55.56197 11.87911 7585 ft 296 kts 104°
2026-04-24 11:25 55.55568 11.91331 7089 ft 288 kts 104°
2026-04-24 11:26 55.54951 11.94685 6653 ft 288 kts 104°
2026-04-24 11:26 55.54335 11.98057 6184 ft 290 kts 104°
2026-04-24 11:26 55.53717 12.01441 5762 ft 289 kts 104°
2026-04-24 11:26 55.53099 12.04797 5427 ft 285 kts 104°
2026-04-24 11:27 55.52482 12.08119 5013 ft 284 kts 104°
2026-04-24 11:27 55.51827 12.11395 4712 ft 282 kts 110°
2026-04-24 11:27 55.50864 12.14396 4383 ft 280 kts 120°
2026-04-24 11:27 55.49842 12.17233 4194 ft 264 kts 120°
2026-04-24 11:28 55.48883 12.19859 4059 ft 246 kts 120°
2026-04-24 11:28 55.47969 12.22338 3782 ft 238 kts 120°
2026-04-24 11:28 55.47076 12.24776 3547 ft 235 kts 120°
2026-04-24 11:28 55.46196 12.27173 3385 ft 229 kts 120°
2026-04-24 11:29 55.45553 12.29651 3229 ft 218 kts 95°
2026-04-24 11:29 55.45438 12.32287 3051 ft 215 kts 86°
2026-04-24 11:29 55.45435 12.34922 3000 ft 215 kts 85°
2026-04-24 11:29 55.45524 12.37499 3005 ft 210 kts 73°
2026-04-24 11:30 55.46042 12.39746 3024 ft 191 kts 52°
2026-04-24 11:30 55.46898 12.41424 3001 ft 176 kts 36°
2026-04-24 11:30 55.47793 12.42793 2937 ft 167 kts 36°
2026-04-24 11:30 55.48658 12.44115 2796 ft 163 kts 36°
2026-04-24 11:31 55.49504 12.45411 2591 ft 160 kts 36°
2026-04-24 11:31 55.50343 12.46696 2385 ft 159 kts 34°
2026-04-24 11:31 55.51182 12.47982 2170 ft 159 kts 35°
2026-04-24 11:31 55.52013 12.49259 1956 ft 156 kts 35°
2026-04-24 11:32 55.52794 12.50462 1758 ft 142 kts 35°
2026-04-24 11:32 55.53521 12.51580 1556 ft 136 kts 35°
2026-04-24 11:32 55.54232 12.52670 1364 ft 136 kts 36°
2026-04-24 11:32 55.54947 12.53769 1187 ft 137 kts 36°
2026-04-24 11:33 55.55658 12.54864 997 ft 134 kts 34°
2026-04-24 11:33 55.56363 12.55947 804 ft 134 kts 34°
2026-04-24 11:33 55.57055 12.57035 628 ft 133 kts 38°
2026-04-24 11:33 55.57752 12.58102 420 ft 132 kts 37°
2026-04-24 11:34 55.58446 12.59156 269 ft 132 kts 37°
2026-04-24 11:34 55.59130 12.60210 95 ft 129 kts 38°
2026-04-24 11:34 55.59777 12.61209 16 ft 110 kts 40°
2026-04-24 11:34 55.60271 12.61979 18 ft 83 kts 41°
2026-04-24 11:35 55.60654 12.62568 20 ft 66 kts 41°
2026-04-24 11:35 55.60941 12.63009 18 ft 46 kts 40°
2026-04-24 11:35 55.61164 12.63352 21 ft 40 kts 40°
2026-04-24 11:35 55.61365 12.63662 19 ft 37 kts 41°
2026-04-24 11:36 55.61551 12.63959 19 ft 34 kts 42°
2026-04-24 11:36 55.61677 12.64090 20 ft 19 kts 357°
2026-04-24 11:36 55.61810 12.64076 17 ft 20 kts 356°
2026-04-24 11:36 55.61924 12.64116 18 ft 13 kts 27°
2026-04-24 11:37 55.62013 12.64196 18 ft 15 kts 26°
2026-04-24 11:37 55.62114 12.64280 17 ft 17 kts 23°
2026-04-24 11:37 55.62229 12.64375 16 ft 19 kts 31°
2026-04-24 11:37 55.62287 12.64565 17 ft 17 kts 65°
2026-04-24 11:38 55.62338 12.64764 18 ft 14 kts 66°
2026-04-24 11:38 55.62333 12.64918 18 ft 12 kts 124°
2026-04-24 11:38 55.62289 12.65034 18 ft 11 kts 124°
2026-04-24 11:38 55.62277 12.65152 19 ft 12 kts 70°
2026-04-24 11:39 55.62371 12.65205 17 ft 17 kts 358°
2026-04-24 11:39 55.62437 12.65298 17 ft 15 kts 91°
2026-04-24 11:39 55.62439 12.65484 17 ft 15 kts 77°
2026-04-24 11:39 55.62495 12.65559 17 ft 7 kts 21°
2026-04-24 11:40 55.62519 12.65576 20 ft 0 kts 22°